Wind_Speed
3 3 4 3 3 3 2 2 3 2 2 2 2 2 2 2 3 3 3 2 3 4 4 4 4 4 4 4 4 5 5 5 5 5 5 5 6 6 5 5 6 6 6
3 3 3 2 3 3 2 1 2 2 2 2 2 2 2 2 3 3 3 3 3 3 3 4 4 4 4 5 5 5 6 6 6 6 6 6 6 6 7 7 7 7 7
4 3 3 3 2 2 2 2 3 3 3 2 3 3 3 3 3 3 4 4 3 4 5 5 5 5 5 5 6 6 6 7 7 8 7 7 7 7 8 8 8 8 8
4 3 3 3 3 3 3 2 3 4 4 3 3 4 3 3 3 4 4 4 4 5 5 6 6 6 6 6 7 7 7 8 8 8 9 9 8 8 8 9 9 9 10
4 4 3 3 3 3 3 3 3 4 4 4 3 4 4 4 4 5 5 5 5 5 6 6 7 7 7 8 8 8 9 9 9 9 9 10 9 9 10 10 10 10 10
4 4 4 4 4 3 4 4 4 4 4 4 4 4 4 5 5 5 6 6 6 6 7 8 8 9 9 10 10 10 10 11 11 11 11 11 11 11 11 11 11 10 10
5 5 5 5 5 5 5 5 5 5 6 6 5 5 6 6 6 7 7 8 8 9 9 10 10 11 11 11 11 11 11 11 12 11 11 11 11 12 12 12 12 11 11
5 5 5 5 5 5 5 6 6 6 7 7 7 7 7 7 8 8 8 9 10 10 11 11 11 12 12 12 12 12 12 13 13 13 12 12 12 12 12 12 12 12 12
6 6 6 7 7 6 6 7 7 7 8 8 9 9 9 10 10 10 11 11 11 12 12 12 13 13 14 13 13 13 13 13 14 14 14 14 14 14 14 14 14 14 14
7 7 7 8 8 8 8 8 9 9 9 10 10 11 12 12 13 13 13 13 13 14 14 14 14 14 14 14 14 14 14 14 15 14 15 15 15 15 15 16 16 15 15
9 9 9 9 9 9 10 10 10 11 11 11 12 13 13 14 15 15 15 15 15 15 15 16 16 16 15 15 15 15 15 15 15 15 15 15 15 15 15 15 16 17 17
10 10 10 10 10 10 11 11 11 12 13 13 13 14 15 15 16 16 16 17 16 16 17 17 17 17 17 16 16 16 17 16 16 16 16 16 16 16 15 16 16 17 18
11 12 12 12 12 12 12 12 12 13 14 14 15 15 16 16 17 17 17 17 17 18 18 18 18 18 17 18 17 18 18 18 18 18 18 18 18 17 17 17 17 17 18
13 14 14 14 15 14 14 14 14 14 14 15 16 16 17 17 18 18 18 18 18 18 19 19 19 20 20 19 18 18 18 19 19 19 18 18 18 18 18 18 18 19 19
15 16 16 16 17 17 16 16 15 15 15 16 16 17 18 18 19 19 19 19 19 19 20 20 20 21 21 21 19 19 19 19 19 19 18 18 18 18 19 19 19 20 20
17 17 17 18 18 18 17 16 16 16 16 16 17 18 18 18 19 19 19 20 21 21 20 20 21 21 21 22 22 20 21 20 18 18 18 19 20 20 20 20 20 21 21
19 19 18 19 19 19 19 18 18 18 18 18 18 19 19 19 20 20 21 22 22 22 21 21 21 21 21 22 22 21 22 21 20 20 20 20 21 21 21 21 21 21 22
20 19 19 20 21 21 21 20 20 20 20 20 21 21 21 21 21 21 22 23 23 23 22 22 22 22 22 23 23 23 22 22 21 21 21 22 23 23 23 22 22 22 22
20 21 21 21 22 21 21 21 21 21 22 22 22 22 22 22 22 22 23 24 24 24 23 23 23 24 24 24 25 24 24 24 22 22 22 22 23 24 24 23 23 23 23
21 22 23 23 22 21 21 21 22 23 23 23 23 23 23 23 24 24 24 25 25 25 24 24 24 24 25 26 26 25 25 25 25 24 24 23 23 24 24 24 24 24 24
22 22 24 24 23 23 23 23 23 23 24 24 24 24 23 24 25 25 25 25 25 25 25 25 25 25 26 26 26 26 26 25 25 25 25 24 24 23 24 24 24 24 24
22 23 23 23 23 23 24 24 24 25 25 25 25 25 25 25 25 26 26 26 26 26 26 27 27 27 27 27 27 26 26 25 25 25 25 26 25 25 24 24 24 25 24
22 23 23 24 23 23 24 25 25 25 25 25 26 26 26 26 26 26 27 27 28 28 27 27 27 27 27 27 27 26 26 26 26 26 26 25 25 25 24 24 25 25 25
23 23 23 24 24 25 25 26 25 26 26 26 26 26 27 27 26 27 27 27 27 27 27 27 28 27 26 25 25 26 26 26 26 26 27 26 26 26 25 25 25 25 25
23 24 25 25 26 26 26 26 26 26 26 26 26 27 27 27 27 27 27 27 26 26 27 28 28 27 26 25 25 26 26 26 26 26 26 26 26 26 26 26 26 26 26
25 25 25 26 27 26 26 25 26 27 27 27 27 27 27 27 27 27 26 26 26 26 26 26 27 27 26 26 25 26 26 26 25 25 25 25 25 25 25 25 26 27 27
Wind_Direction
71 66 56 68 73 67 61 68 61 55 39 33 36 26 17 1 3 8 2 352 338 328 328 338 335 334 311 303 305 312 315 316 316 318 310 298 295 292 285 281 276 269 271
47 39 41 52 62 54 47 43 40 33 17 25 29 19 11 8 6 13 1 349 341 337 337 337 333 330 325 313 303 305 313 311 307 304 304 300 294 291 288 279 273 271 271
28 23 17 15 18 17 19 18 24 23 13 16 21 22 18 14 10 1 353 343 334 330 333 333 330 330 325 319 317 307 305 307 305 303 300 295 291 291 288 281 276 272 268
11 6 358 9 13 7 5 7 8 8 3 1 7 6 3 359 353 348 342 338 328 319 320 324 322 321 320 318 314 311 305 303 302 300 298 293 287 289 290 284 279 274 270
359 0 359 3 357 350 349 346 344 346 350 347 344 341 336 331 336 332 327 328 328 319 313 313 315 316 314 312 307 303 301 301 298 294 293 293 289 286 283 282 279 275 271
359 4 357 352 348 338 324 317 323 324 329 330 326 320 322 320 320 320 319 320 318 316 309 306 309 309 309 309 306 302 299 298 298 295 288 289 287 282 281 280 279 275 273
341 343 341 338 333 326 322 317 313 314 317 319 319 314 307 310 310 312 312 313 312 311 309 307 305 303 303 304 303 301 300 298 295 294 289 286 285 281 281 281 280 276 272
323 318 320 324 322 319 315 314 313 309 311 312 310 308 307 306 306 308 308 310 309 308 305 304 303 303 302 303 301 299 299 297 295 291 288 286 284 282 279 278 278 274 273
315 313 310 313 314 315 314 309 307 305 303 302 302 304 307 307 305 305 305 304 306 305 303 303 303 303 302 302 302 300 298 297 294 291 288 286 284 282 277 276 276 274 272
314 308 307 308 309 311 310 308 306 304 303 301 300 300 301 303 303 303 301 302 302 300 301 299 299 299 300 301 301 298 297 295 294 291 287 285 284 283 283 276 272 272 272
315 313 307 304 304 305 306 304 303 302 302 301 299 299 299 299 300 302 299 298 298 299 300 299 299 298 297 298 296 296 297 295 293 291 291 288 285 282 283 283 276 272 273
312 312 308 304 303 305 305 304 301 301 301 300 299 300 300 300 300 301 302 300 297 296 295 295 296 297 297 297 295 294 294 293 293 292 289 289 287 284 284 284 283 278 273
310 311 310 308 305 304 304 303 300 300 301 300 298 299 300 301 300 301 302 302 300 298 297 294 295 296 294 295 296 295 292 292 291 290 289 288 287 285 284 285 286 283 280
306 309 309 308 307 304 299 301 299 301 301 298 297 298 300 302 302 300 302 303 302 299 297 295 293 290 290 292 293 294 292 292 290 288 286 287 285 283 282 283 285 284 283
304 305 307 307 308 309 304 301 301 303 304 301 299 299 301 301 301 299 300 302 303 301 299 296 293 290 290 293 292 292 292 290 288 286 286 286 285 284 282 282 284 284 283
303 303 303 305 306 306 304 304 306 305 303 303 302 303 302 301 299 300 301 302 302 302 301 299 296 294 291 289 289 289 289 288 289 288 287 286 284 284 283 282 283 282 282
299 301 301 303 303 304 303 303 304 306 304 301 300 299 299 298 296 297 298 299 300 301 301 300 298 295 293 293 292 289 290 292 286 287 288 286 284 284 283 283 282 281 282
297 299 299 301 302 302 300 300 301 303 301 299 299 298 297 296 295 295 295 297 298 298 299 299 297 296 295 294 294 295 295 293 288 285 285 286 286 285 283 282 281 281 282
293 294 297 298 299 299 299 299 299 300 300 298 299 299 297 297 297 296 296 297 298 298 298 298 296 295 295 294 294 295 293 292 289 287 286 284 284 283 281 282 281 282 282
292 292 294 296 297 296 298 300 300 300 301 300 300 301 300 299 298 297 296 296 296 297 297 296 296 295 295 295 293 292 292 292 290 287 286 285 284 282 281 281 280 280 281
293 293 294 294 294 295 297 299 300 302 304 304 302 303 301 299 298 296 295 295 295 294 295 296 296 296 297 296 295 292 290 290 290 288 286 286 286 284 281 280 279 278 280
293 293 294 294 294 294 296 298 299 301 303 304 304 304 303 301 299 298 297 295 294 294 294 295 295 295 296 296 294 292 292 290 289 287 287 285 284 282 281 280 279 279 280
294 293 294 295 294 294 295 298 300 301 302 303 303 303 302 301 301 300 297 295 294 293 293 293 293 294 293 294 293 291 290 290 289 288 287 286 286 284 280 279 280 281 281
294 294 294 295 294 294 295 298 301 302 302 302 303 302 301 301 300 299 297 295 293 292 292 292 292 291 292 294 293 291 291 289 289 289 288 286 285 284 283 282 281 281 280
294 294 294 294 294 294 294 296 299 300 301 302 302 300 301 302 300 300 299 297 296 293 291 290 291 291 291 293 293 292 292 291 291 290 288 286 285 284 284 283 282 282 281
296 294 294 294 294 293 293 294 297 298 299 301 301 302 302 303 302 300 298 297 297 296 294 293 293 293 293 294 295 295 294 293 293 292 290 286 285 284 284 284 283 282 281
Height
5900 5900 5900 5900 5900 5901 5901 5901 5901 5901 5901 5901 5901 5900 5900 5901 5901 5901 5901 5901 5901 5900 5900 5900 5900 5899 5899 5899 5899 5899 5899 5898 5898 5898 5898 5897 5897 5897 5897 5897 5898 5898 5899
5901 5901 5902 5901 5902 5901 5901 5901 5901 5901 5902 5901 5901 5901 5901 5901 5901 5901 5901 5900 5900 5900 5899 5899 5899 5899 5898 5898 5898 5898 5898 5897 5897 5897 5896 5896 5896 5896 5896 5896 5896 5897 5897
5902 5902 5903 5902 5902 5902 5902 5902 5902 5902 5902 5902 5902 5902 5901 5901 5901 5900 5900 5900 5900 5899 5899 5899 5898 5898 5897 5897 5897 5897 5897 5896 5896 5895 5895 5895 5894 5894 5894 5894 5895 5895 5895
5903 5903 5903 5903 5903 5903 5902 5902 5902 5902 5902 5902 5902 5902 5901 5901 5901 5900 5900 5900 5899 5899 5898 5898 5897 5897 5896 5896 5895 5895 5895 5894 5894 5894 5893 5893 5893 5892 5892 5892 5893 5893 5893
5904 5903 5903 5903 5903 5903 5903 5902 5902 5902 5902 5902 5901 5901 5901 5901 5900 5900 5899 5899 5898 5898 5898 5897 5896 5896 5895 5895 5894 5893 5893 5892 5892 5892 5891 5891 5891 5890 5890 5890 5890 5890 5890
5904 5904 5904 5903 5903 5903 5903 5902 5902 5902 5901 5901 5901 5901 5900 5900 5900 5899 5899 5898 5898 5897 5897 5896 5895 5894 5894 5893 5892 5891 5891 5890 5890 5889 5889 5889 5888 5888 5888 5888 5888 5888 5888
5904 5904 5904 5903 5903 5903 5902 5902 5902 5901 5901 5900 5900 5900 5900 5899 5899 5898 5898 5897 5896 5895 5895 5894 5893 5892 5892 5891 5890 5889 5888 5887 5887 5886 5886 5886 5885 5885 5885 5885 5885 5885 5885
5904 5904 5903 5903 5903 5902 5902 5901 5901 5900 5900 5899 5899 5898 5898 5898 5897 5897 5896 5896 5895 5894 5893 5892 5891 5890 5889 5888 5887 5886 5885 5884 5884 5883 5883 5882 5882 5881 5881 5881 5881 5881 5882
5903 5903 5902 5902 5902 5901 5901 5900 5900 5899 5899 5898 5897 5897 5897 5896 5895 5895 5894 5893 5892 5891 5890 5889 5888 5887 5886 5885 5884 5883 5882 5881 5880 5880 5879 5879 5878 5878 5878 5878 5878 5878 5878
5902 5902 5901 5901 5900 5900 5899 5899 5898 5898 5897 5897 5896 5895 5894 5893 5893 5892 5891 5890 5889 5887 5886 5886 5885 5884 5883 5882 5881 5880 5879 5878 5877 5876 5875 5875 5874 5874 5874 5874 5873 5873 5874
5901 5900 5899 5899 5899 5898 5898 5897 5896 5896 5895 5894 5894 5893 5892 5891 5890 5889 5888 5887 5886 5884 5883 5882 5881 5880 5878 5877 5877 5876 5875 5874 5873 5872 5871 5871 5870 5870 5870 5869 5869 5869 5869
5899 5898 5898 5897 5897 5896 5895 5895 5894 5893 5892 5892 5891 5890 5889 5888 5886 5885 5884 5883 5882 5881 5879 5878 5876 5875 5875 5874 5873 5872 5871 5870 5869 5868 5867 5866 5866 5866 5865 5865 5865 5865 5865
5897 5897 5896 5895 5894 5894 5893 5892 5891 5890 5889 5888 5888 5887 5886 5884 5883 5881 5880 5879 5878 5877 5876 5874 5872 5871 5870 5869 5868 5867 5866 5865 5864 5863 5862 5861 5861 5861 5860 5860 5860 5859 5859
5895 5895 5893 5893 5892 5890 5889 5889 5888 5887 5886 5885 5884 5883 5882 5880 5879 5877 5876 5875 5874 5873 5871 5870 5868 5867 5865 5863 5862 5862 5861 5860 5859 5858 5857 5856 5856 5855 5855 5855 5855 5854 5854
5893 5892 5891 5890 5889 5887 5886 5885 5885 5884 5882 5881 5880 5879 5877 5876 5874 5873 5872 5870 5869 5868 5867 5865 5864 5862 5861 5859 5857 5857 5855 5854 5853 5852 5852 5851 5851 5850 5850 5849 5849 5849 5849
5889 5888 5888 5887 5885 5884 5883 5882 5881 5880 5879 5877 5876 5875 5873 5872 5870 5869 5867 5866 5864 5863 5861 5860 5858 5857 5855 5854 5853 5852 5850 5848 5847 5847 5847 5846 5845 5845 5844 5844 5843 5843 5843
5886 5885 5884 5883 5881 5880 5879 5878 5877 5876 5874 5873 5872 5870 5869 5867 5865 5864 5862 5861 5859 5857 5856 5855 5853 5852 5850 5849 5847 5846 5844 5843 5842 5841 5841 5841 5840 5839 5839 5838 5838 5837 5837
5882 5881 5880 5879 5877 5876 5874 5873 5872 5871 5870 5868 5867 5865 5863 5862 5860 5858 5856 5855 5853 5852 5851 5849 5847 5846 5845 5843 5842 5840 5839 5837 5836 5836 5835 5835 5834 5833 5833 5832 5831 5831 5831
5878 5877 5875 5874 5873 5871 5870 5868 5867 5866 5864 5863 5861 5859 5858 5856 5854 5852 5851 5849 5847 5846 5844 5843 5841 5840 5838 5837 5836 5834 5832 5831 5830 5829 5829 5828 5827 5826 5826 5825 5825 5824 5824
5873 5872 5871 5869 5868 5866 5865 5863 5862 5860 5858 5857 5855 5853 5851 5850 5848 5846 5845 5843 5841 5839 5838 5836 5835 5833 5832 5830 5829 5828 5827 5825 5824 5823 5822 5822 5821 5820 5819 5819 5818 5817 5817
5868 5866 5865 5864 5862 5861 5859 5858 5856 5854 5852 5850 5849 5847 5845 5843 5842 5840 5838 5836 5834 5833 5831 5830 5828 5827 5825 5823 5822 5820 5819 5818 5817 5816 5815 5815 5814 5813 5812 5812 5811 5811 5810
5862 5861 5860 5858 5857 5855 5854 5852 5850 5848 5847 5845 5843 5841 5839 5837 5835 5833 5831 5829 5827 5826 5824 5823 5821 5820 5818 5816 5814 5813 5811 5810 5810 5810 5808 5807 5806 5805 5805 5804 5804 5804 5803
5857 5856 5855 5853 5851 5850 5848 5846 5844 5843 5841 5839 5837 5834 5832 5830 5828 5826 5824 5822 5820 5818 5817 5816 5814 5812 5811 5809 5807 5806 5804 5803 5802 5801 5800 5799 5798 5798 5797 5797 5796 5796 5795
5851 5850 5849 5847 5846 5844 5842 5840 5838 5836 5834 5832 5830 5828 5825 5823 5821 5819 5817 5815 5813 5811 5810 5808 5807 5805 5803 5801 5800 5799 5797 5796 5795 5794 5792 5791 5791 5790 5790 5789 5789 5788 5788
5846 5844 5843 5841 5839 5837 5835 5833 5831 5829 5828 5825 5823 5821 5818 5816 5814 5812 5810 5808 5806 5804 5802 5801 5799 5797 5796 5794 5793 5791 5790 5789 5788 5786 5785 5784 5783 5782 5782 5781 5780 5780 5780
5840 5838 5836 5834 5832 5830 5828 5827 5825 5823 5821 5819 5817 5814 5812 5810 5807 5805 5802 5801 5799 5797 5795 5793 5792 5790 5788 5787 5785 5784 5782 5781 5779 5778 5777 5776 5775 5774 5774 5774 5773 5772 5771